• In Italy
  • List of Countries
  • For 7 days
  • Water Temperature
  • Satellite Maps
  • Weather Map
  • Weather Widgets
  • user-avatar
    Login

    Hourly Weather Ahmadabad

    Today, 19 November, Sunday

    Time Temperature Precipitation Wind Pressure Humidity
    00:00 +24°C° 0 mm 2 mps 755 mmHg 39%
    01:00 +24°C° 0 mm 2 mps 755 mmHg 40%
    02:00 +23°C° 0 mm 2 mps 755 mmHg 41%
    03:00 +23°C° 0 mm 2 mps 755 mmHg 42%
    04:00 +21°C° 0 mm 3 mps 755 mmHg 44%
    05:00 +21°C° 0 mm 3 mps 755 mmHg 54%
    06:00 +22°C° 0 mm 4 mps 755 mmHg 52%
    07:00 +23°C° 0 mm 4 mps 756 mmHg 51%
    08:00 +25°C° 0 mm 5 mps 756 mmHg 49%
    09:00 +27°C° 0 mm 4 mps 756 mmHg 45%
    10:00 +29°C° 0 mm 4 mps 756 mmHg 40%
    11:00 +32°C° 0 mm 4 mps 756 mmHg 35%
    12:00 +33°C° 0 mm 3 mps 756 mmHg 32%
    13:00 +32°C° 0 mm 2 mps 755 mmHg 28%
    14:00 +34°C° 0 mm 2 mps 754 mmHg 24%
    15:00 +32°C° 0 mm 2 mps 754 mmHg 25%
    16:00 +32°C° 0 mm 2 mps 754 mmHg 27%
    17:00 +31°C° 0 mm 2 mps 754 mmHg 28%
    18:00 +30°C° 0 mm 2 mps 754 mmHg 30%
    19:00 +28°C° 0 mm 2 mps 755 mmHg 31%
    20:00 +27°C° 0 mm 3 mps 755 mmHg 32%
    21:00 +27°C° 0 mm 3 mps 755 mmHg 33%
    22:00 +26°C° 0 mm 3 mps 756 mmHg 34%
    23:00 +25°C° 0 mm 4 mps 756 mmHg 34%

    Tomorrow, 20 November, Monday

    Time Temperature Precipitation Wind Pressure Humidity
    00:00 +25°C° 0 mm 4 mps 756 mmHg 35%
    01:00 +23°C° 0 mm 4 mps 756 mmHg 35%
    02:00 +23°C° 0 mm 4 mps 755 mmHg 35%
    03:00 +23°C° 0 mm 4 mps 756 mmHg 34%
    04:00 +22°C° 0 mm 4 mps 756 mmHg 33%
    05:00 +22°C° 0 mm 4 mps 756 mmHg 32%
    06:00 +23°C° 0 mm 5 mps 756 mmHg 31%
    07:00 +23°C° 0 mm 5 mps 757 mmHg 30%
    08:00 +25°C° 0 mm 5 mps 757 mmHg 29%
    09:00 +27°C° 0 mm 5 mps 757 mmHg 29%
    10:00 +29°C° 0 mm 5 mps 757 mmHg 28%
    11:00 +32°C° 0 mm 5 mps 757 mmHg 27%
    12:00 +33°C° 0 mm 5 mps 756 mmHg 26%
    13:00 +34°C° 0 mm 4 mps 755 mmHg 24%
    14:00 +35°C° 0 mm 3 mps 754 mmHg 23%
    15:00 +34°C° 0 mm 3 mps 754 mmHg 24%
    16:00 +32°C° 0 mm 2 mps 754 mmHg 26%
    17:00 +31°C° 0 mm 2 mps 754 mmHg 28%
    18:00 +30°C° 0 mm 2 mps 755 mmHg 30%
    19:00 +28°C° 0 mm 2 mps 755 mmHg 31%
    20:00 +27°C° 0 mm 3 mps 756 mmHg 33%
    21:00 +26°C° 0 mm 3 mps 756 mmHg 34%
    22:00 +26°C° 0 mm 3 mps 756 mmHg 35%
    23:00 +25°C° 0 mm 3 mps 756 mmHg 36%

    Day after tomorrow, 21 November, Tuesday

    Time Temperature Precipitation Wind Pressure Humidity
    00:00 +25°C° 0 mm 3 mps 755 mmHg 36%
    01:00 +24°C° 0 mm 3 mps 755 mmHg 37%
    02:00 +23°C° 0 mm 4 mps 755 mmHg 37%
    03:00 +22°C° 0 mm 4 mps 755 mmHg 37%
    04:00 +22°C° 0 mm 4 mps 755 mmHg 36%
    05:00 +22°C° 0 mm 4 mps 755 mmHg 36%
    06:00 +22°C° 0 mm 5 mps 755 mmHg 34%
    07:00 +23°C° 0 mm 5 mps 756 mmHg 33%
    08:00 +25°C° 0 mm 5 mps 756 mmHg 31%
    09:00 +27°C° 0 mm 5 mps 756 mmHg 29%
    10:00 +29°C° 0 mm 5 mps 756 mmHg 27%
    11:00 +32°C° 0 mm 5 mps 756 mmHg 25%
    12:00 +33°C° 0 mm 4 mps 755 mmHg 23%
    13:00 +34°C° 0 mm 3 mps 754 mmHg 22%
    14:00 +34°C° 0 mm 2 mps 754 mmHg 20%
    15:00 +32°C° 0 mm 2 mps 754 mmHg 21%
    16:00 +32°C° 0 mm 2 mps 753 mmHg 23%
    17:00 +31°C° 0 mm 2 mps 753 mmHg 24%
    18:00 +30°C° 0 mm 2 mps 754 mmHg 25%
    19:00 +28°C° 0 mm 2 mps 755 mmHg 25%
    20:00 +27°C° 0 mm 2 mps 755 mmHg 25%
    21:00 +27°C° 0 mm 2 mps 755 mmHg 26%
    22:00 +26°C° 0 mm 2 mps 755 mmHg 26%
    23:00 +25°C° 0 mm 2 mps 755 mmHg 26%

    22 November, Wednesday

    Time Temperature Precipitation Wind Pressure Humidity
    00:00 +25°C° 0 mm 3 mps 755 mmHg 27%
    01:00 +24°C° 0 mm 3 mps 754 mmHg 28%
    02:00 +24°C° 0 mm 3 mps 754 mmHg 29%
    03:00 +24°C° 0 mm 3 mps 754 mmHg 30%
    04:00 +22°C° 0 mm 3 mps 754 mmHg 31%
    05:00 +22°C° 0 mm 3 mps 754 mmHg 33%
    06:00 +22°C° 0 mm 4 mps 754 mmHg 33%
    07:00 +23°C° 0 mm 4 mps 755 mmHg 33%
    08:00 +25°C° 0 mm 4 mps 756 mmHg 33%
    09:00 +27°C° 0 mm 4 mps 756 mmHg 29%
    10:00 +29°C° 0 mm 4 mps 756 mmHg 26%
    11:00 +33°C° 0 mm 4 mps 755 mmHg 23%
    12:00 +33°C° 0 mm 3 mps 755 mmHg 22%
    13:00 +34°C° 0 mm 2 mps 754 mmHg 22%
    14:00 +35°C° 0 mm 2 mps 753 mmHg 21%
    15:00 +34°C° 0 mm 2 mps 753 mmHg 23%
    16:00 +32°C° 0 mm 2 mps 753 mmHg 26%
    17:00 +31°C° 0 mm 2 mps 753 mmHg 28%
    18:00 +30°C° 0 mm 2 mps 753 mmHg 28%
    19:00 +29°C° 0 mm 2 mps 754 mmHg 29%
    20:00 +28°C° 0 mm 2 mps 755 mmHg 30%
    21:00 +27°C° 0 mm 2 mps 755 mmHg 30%
    22:00 +27°C° 0 mm 2 mps 755 mmHg 30%
    23:00 +26°C° 0 mm 2 mps 755 mmHg 30%

    23 November, Thursday

    Time Temperature Precipitation Wind Pressure Humidity
    00:00 +26°C° 0 mm 3 mps 754 mmHg 30%
    01:00 +25°C° 0 mm 3 mps 754 mmHg 29%
    02:00 +25°C° 0 mm 3 mps 753 mmHg 29%
    03:00 +24°C° 0 mm 3 mps 753 mmHg 29%
    04:00 +24°C° 0 mm 3 mps 753 mmHg 28%
    05:00 +22°C° 0 mm 3 mps 754 mmHg 28%
    06:00 +24°C° 0 mm 3 mps 754 mmHg 28%
    07:00 +24°C° 0 mm 3 mps 755 mmHg 28%
    08:00 +25°C° 0 mm 4 mps 755 mmHg 28%
    09:00 +27°C° 0 mm 3 mps 755 mmHg 25%
    10:00 +30°C° 0 mm 3 mps 755 mmHg 23%
    11:00 +33°C° 0 mm 3 mps 755 mmHg 21%
    12:00 +34°C° 0 mm 2 mps 754 mmHg 21%
    13:00 +34°C° 0 mm 1 mps 754 mmHg 22%
    14:00 +34°C° 0 mm 1 mps 753 mmHg 22%
    15:00 +34°C° 0 mm 1 mps 753 mmHg 24%
    16:00 +33°C° 0 mm 1 mps 753 mmHg 26%
    17:00 +32°C° 0 mm 2 mps 753 mmHg 28%
    18:00 +31°C° 0 mm 2 mps 753 mmHg 29%
    19:00 +29°C° 0 mm 2 mps 754 mmHg 30%
    20:00 +28°C° 0 mm 3 mps 754 mmHg 31%
    21:00 +27°C° 0 mm 3 mps 754 mmHg 32%
    22:00 +27°C° 0 mm 3 mps 754 mmHg 32%
    23:00 +26°C° 0 mm 3 mps 754 mmHg 33%

    24 November, Friday

    Time Temperature Precipitation Wind Pressure Humidity
    00:00 +26°C° 0 mm 3 mps 754 mmHg 33%
    01:00 +25°C° 0 mm 2 mps 754 mmHg 33%
    02:00 +25°C° 0 mm 2 mps 754 mmHg 34%
    03:00 +24°C° 0 mm 2 mps 754 mmHg 35%
    04:00 +24°C° 0 mm 2 mps 754 mmHg 36%
    05:00 +23°C° 0 mm 2 mps 754 mmHg 37%
    06:00 +24°C° 0 mm 2 mps 755 mmHg 36%
    07:00 +25°C° 0 mm 2 mps 755 mmHg 36%
    08:00 +25°C° 0 mm 2 mps 756 mmHg 36%
    09:00 +28°C° 0 mm 2 mps 756 mmHg 32%
    10:00 +30°C° 0 mm 1 mps 756 mmHg 28%
    11:00 +32°C° 0 mm 1 mps 756 mmHg 24%
    12:00 +34°C° 0 mm 2 mps 755 mmHg 23%
    13:00 +34°C° 0 mm 2 mps 754 mmHg 22%
    14:00 +35°C° 0 mm 3 mps 753 mmHg 21%
    15:00 +34°C° 0 mm 3 mps 754 mmHg 22%
    16:00 +33°C° 0 mm 3 mps 754 mmHg 23%
    17:00 +31°C° 0 mm 3 mps 754 mmHg 25%
    18:00 +30°C° 0 mm 3 mps 754 mmHg 24%
    19:00 +28°C° 0 mm 3 mps 755 mmHg 24%
    20:00 +27°C° 0 mm 2 mps 755 mmHg 23%
    21:00 +26°C° 0 mm 2 mps 755 mmHg 22%
    22:00 +26°C° 0 mm 2 mps 755 mmHg 21%
    23:00 +25°C° 0 mm 2 mps 755 mmHg 20%
    Show more